Wahoo, NE

12:13 AM CDT on September 22, 2017 (GMT -0500)
Wahoo Municipal

Weather History for KAHQ - May, 2012

Change the Weather History Date:

Monday, May 21, 2012

  Actual Average Record
Temperature  
Mean Temperature 62 °F -  
Max Temperature 77 °F 76 °F 95 °F (1973)
Min Temperature 47 °F 50 °F 33 °F (1968)
Degree Days  
Heating Degree Days 3    
Growing Degree Days 12 (Base 50)    
Moisture  
Dew Point 42 °F    
Average Humidity 52    
Maximum Humidity 90    
Minimum Humidity 24    
Precipitation  
Precipitation 0.00 in - - ()
Sea Level Pressure  
Sea Level Pressure 30.22 in    
Wind  
Wind Speed 4 mph (South)    
Max Wind Speed 13 mph    
Max Gust Speed 18 mph    
Visibility 10 miles    
Events      
Averages and records for this station are not official NWS values.
T = Trace of Precipitation, MM = Missing Value Source: NWS Daily Summary

Daily Weather History Graph

Daily Weather History Graph

Search for Another Location

Airport or City:

Trip Planner

Search our weather history database for the weather conditions in past years. The results will help you decide how hot, cold, wet, or windy it might be!

Date:

Astronomy

May. 21, 2012 Rise Set
Actual Time 6:02 AM CDT 8:44 PM CDT
Civil Twilight 5:30 AM CDT 9:16 PM CDT
Nautical Twilight 4:49 AM CDT 9:56 PM CDT
Astronomical Twilight 4:04 AM CDT 10:42 PM CDT
Moon 6:25 AM CDT (5/21) 9:35 PM CDT (5/21)
Length of Visible Light 15h 46m
Length of Day
14h 42m
New Moon, 0% of the Moon is Illuminated
May 21
New Moon
May 28
First Quarter
Jun 4
Full
Jun 11
Last Quarter
Jun 19
New

Hourly Weather History & Observations

Time (CDT) Temp. Dew Point Humidity Pressure Visibility Wind Dir Wind Speed Gust Speed Precip Events Conditions
12:15 AM 53.2 °F 47.3 °F 80% 30.27 in 10.0 mi NNE 3.5 mph - N/A   Clear
12:35 AM 53.1 °F 46.8 °F 79% 30.28 in 10.0 mi NE 3.5 mph - N/A   Clear
12:55 AM 53.1 °F 46.4 °F 78% 30.28 in 10.0 mi Calm Calm - N/A   Clear
1:15 AM 53.2 °F 46.0 °F 77% 30.28 in 10.0 mi Calm Calm - N/A   Clear
1:35 AM 52.5 °F 46.0 °F 79% 30.28 in 10.0 mi Calm Calm - N/A   Clear
1:55 AM 52.5 °F 45.5 °F 77% 30.28 in 10.0 mi Calm Calm - N/A   Clear
2:15 AM 51.8 °F 45.5 °F 79% 30.28 in 10.0 mi Calm Calm - N/A   Clear
2:35 AM 51.3 °F 45.3 °F 80% 30.27 in 10.0 mi South 3.5 mph - N/A   Clear
2:55 AM 52.2 °F 44.6 °F 75% 30.27 in 10.0 mi South 3.5 mph - N/A   Clear
3:15 AM 50.9 °F 45.3 °F 81% 30.27 in 10.0 mi Calm Calm - N/A   Clear
3:35 AM 51.6 °F 45.5 °F 80% 30.27 in 10.0 mi Calm Calm - N/A   Clear
3:55 AM 50.4 °F 45.5 °F 83% 30.27 in 10.0 mi Calm Calm - N/A   Clear
4:15 AM 50.9 °F 44.6 °F 79% 30.27 in 10.0 mi Calm Calm - N/A   Clear
4:35 AM 50.5 °F 44.6 °F 80% 30.27 in 10.0 mi SSW 3.5 mph - N/A   Clear
4:55 AM 50.4 °F 44.2 °F 80% 30.27 in 10.0 mi SW 3.5 mph - N/A   Clear
5:15 AM 49.8 °F 43.9 °F 80% 30.27 in 10.0 mi Calm Calm - N/A   Clear
5:35 AM 48.6 °F 44.1 °F 84% 30.28 in 10.0 mi Calm Calm - N/A   Clear
5:55 AM 47.7 °F 44.1 °F 87% 30.27 in 10.0 mi Calm Calm - N/A   Clear
6:15 AM 47.5 °F 44.2 °F 89% 30.27 in 10.0 mi Calm Calm - N/A   Clear
6:35 AM 47.5 °F 44.8 °F 90% 30.28 in 10.0 mi Calm Calm - N/A   Clear
6:55 AM 48.7 °F 45.7 °F 89% 30.28 in 10.0 mi Calm Calm - N/A   Clear
7:15 AM 50.5 °F 46.8 °F 87% 30.28 in 10.0 mi Calm Calm - N/A   Clear
7:35 AM 52.7 °F 48.0 °F 84% 30.29 in 10.0 mi Calm Calm - N/A   Clear
7:55 AM 55.8 °F 45.3 °F 68% 30.29 in 10.0 mi SSW 3.5 mph - N/A   Clear
8:15 AM 57.2 °F 45.5 °F 65% 30.29 in 10.0 mi South 4.6 mph - N/A   Clear
8:35 AM 58.5 °F 46.0 °F 63% 30.29 in 10.0 mi SSE 5.8 mph - N/A   Clear
8:55 AM 60.3 °F 45.3 °F 58% 30.29 in 10.0 mi SSE 5.8 mph - N/A   Clear
9:15 AM 61.7 °F 43.7 °F 52% 30.30 in 10.0 mi South 5.8 mph - N/A   Clear
9:35 AM 63.0 °F 44.2 °F 50% 30.30 in 10.0 mi South 6.9 mph - N/A   Clear
9:55 AM 64.4 °F 42.8 °F 45% 30.29 in 10.0 mi South 5.8 mph - N/A   Clear
10:15 AM 65.3 °F 43.0 °F 44% 30.30 in 10.0 mi South 8.1 mph - N/A   Clear
10:35 AM 66.2 °F 41.5 °F 41% 30.29 in 10.0 mi South 5.8 mph - N/A   Clear
10:55 AM 66.9 °F 42.3 °F 41% 30.29 in 10.0 mi South 6.9 mph - N/A   Clear
11:15 AM 67.3 °F 41.4 °F 39% 30.28 in 10.0 mi SSE 5.8 mph - N/A   Clear
11:35 AM 68.7 °F 40.6 °F 36% 30.27 in 10.0 mi South 8.1 mph - N/A   Clear
11:55 AM 69.3 °F 38.1 °F 32% 30.27 in 10.0 mi SSE 5.8 mph 9.2 mph N/A   Clear
12:15 PM 70.0 °F 39.0 °F 32% 30.26 in 10.0 mi SE 10.4 mph 17.3 mph N/A   Clear
12:35 PM 70.3 °F 39.7 °F 33% 30.25 in 10.0 mi SE 8.1 mph - N/A   Clear
12:55 PM 71.2 °F 38.7 °F 31% 30.25 in 10.0 mi SE 6.9 mph - N/A   Clear
1:15 PM 72.0 °F 38.8 °F 30% 30.24 in 10.0 mi SSE 5.8 mph - N/A   Clear
1:35 PM 72.1 °F 38.1 °F 29% 30.24 in 10.0 mi SSE 8.1 mph - N/A   Clear
1:55 PM 73.8 °F 39.7 °F 29% 30.23 in 10.0 mi SSW 6.9 mph - N/A   Clear
2:15 PM 73.8 °F 37.8 °F 27% 30.22 in 10.0 mi South 9.2 mph 16.1 mph N/A   Clear
2:35 PM 73.2 °F 38.8 °F 29% 30.21 in 10.0 mi SSW 10.4 mph - N/A   Clear
2:55 PM 74.8 °F 38.7 °F 27% 30.20 in 10.0 mi SSW 9.2 mph - N/A   Clear
3:15 PM 75.7 °F 37.8 °F 25% 30.20 in 10.0 mi South 9.2 mph 16.1 mph N/A   Clear
3:35 PM 75.6 °F 38.8 °F 27% 30.19 in 10.0 mi South 6.9 mph - N/A   Mostly Cloudy
3:55 PM 76.1 °F 38.3 °F 26% 30.18 in 10.0 mi South 6.9 mph - N/A   Mostly Cloudy
4:15 PM 76.8 °F 38.7 °F 25% 30.17 in 10.0 mi South 8.1 mph 16.1 mph N/A   Scattered Clouds
4:35 PM 76.6 °F 38.5 °F 25% 30.16 in 10.0 mi South 12.7 mph 18.4 mph N/A   Clear
4:55 PM 76.8 °F 37.6 °F 24% 30.15 in 10.0 mi SW 9.2 mph 16.1 mph N/A   Clear
5:15 PM 76.5 °F 37.0 °F 24% 30.14 in 10.0 mi SSW 9.2 mph - N/A   Scattered Clouds
5:35 PM 77.0 °F 38.7 °F 25% 30.13 in 10.0 mi SSW 9.2 mph - N/A   Scattered Clouds
5:55 PM 77.5 °F 37.9 °F 24% 30.13 in 10.0 mi South 10.4 mph 16.1 mph N/A   Clear
6:15 PM 76.3 °F 38.5 °F 26% 30.12 in 10.0 mi South 12.7 mph 17.3 mph N/A   Clear
6:35 PM 76.3 °F 38.5 °F 26% 30.11 in 10.0 mi South 11.5 mph - N/A   Clear
6:55 PM 75.9 °F 38.5 °F 26% 30.10 in 10.0 mi South 11.5 mph - N/A   Clear
7:15 PM 75.4 °F 38.3 °F 26% 30.09 in 10.0 mi South 11.5 mph - N/A   Clear
7:35 PM 74.5 °F 39.6 °F 28% 30.09 in 10.0 mi SSE 10.4 mph - N/A   Clear
7:55 PM 73.4 °F 39.4 °F 29% 30.09 in 10.0 mi SSE 8.1 mph - N/A   Clear
8:15 PM 72.3 °F 39.7 °F 31% 30.09 in 10.0 mi SSE 8.1 mph - N/A   Clear
8:35 PM 70.3 °F 40.5 °F 34% 30.09 in 10.0 mi SSE 6.9 mph - N/A   Clear
8:55 PM 68.9 °F 41.0 °F 36% 30.09 in 10.0 mi SSE 6.9 mph - N/A   Clear
9:15 PM 65.5 °F 43.7 °F 45% 30.09 in 10.0 mi SSE 5.8 mph - N/A   Clear
9:55 PM 64.2 °F 44.4 °F 49% 30.09 in 10.0 mi SSE 5.8 mph - N/A   Clear
10:15 PM 63.0 °F 44.2 °F 50% 30.09 in 10.0 mi SSE 5.8 mph - N/A   Clear
10:35 PM 61.9 °F 45.3 °F 55% 30.09 in 10.0 mi SSE 6.9 mph - N/A   Clear
10:55 PM 62.6 °F 43.7 °F 50% 30.09 in 10.0 mi SSE 5.8 mph - N/A   Clear
11:35 PM 59.7 °F 45.5 °F 59% 30.07 in 10.0 mi SE 6.9 mph - N/A   Clear
11:55 PM 60.3 °F 44.6 °F 56% 30.07 in 10.0 mi SSE 9.2 mph - N/A   Clear